Location: Beau Repaire
(50.6144°N, 4.0551°E)
Time: 19:41:31
(UTC+00:00)

Cosmos 1452 Rocket - Pass Details

Date: 15 May 2026
Orbit: 763 x 770 km, 74.1° (Epoch: 7 June)

Event Time Altitude Azimuth Distance (km) Brightness Sun altitude
Rises 20:03:10 0° 214° (SW) 3,216 6.7 -5.7°
Reaches altitude 10° 20:05:34 10° 218° (SW) 2,294 6.0 -6.0°
Maximum altitude 20:10:42 59° 298° (WNW) 881 4.3 -6.6°
Drops below altitude 10° 20:15:53 10° 19° (NNE) 2,312 6.3 -7.2°
Sets 20:18:19 0° 23° (NNE) 3,243 7.0 -7.5°
